Weather reports worldwide

Advertisment
Boulmer, United Kingdom (3240): temperature & dewpoint: 11.10.2017 15:00:00 - 17.10.2017 15:00:00 (BST)Boulmer, United Kingdom (3240): wind speed & gusts: 11.10.2017 15:00:00 - 17.10.2017 15:00:00 (BST)Boulmer, United Kingdom (3240): wind direction: 11.10.2017 15:00:00 - 17.10.2017 15:00:00 (BST)Boulmer, United Kingdom (3240): reduced air pressure: 11.10.2017 15:00:00 - 17.10.2017 15:00:00 (BST)Boulmer, United Kingdom (3240): visibility: 11.10.2017 15:00:00 - 17.10.2017 15:00:00 (BST)Boulmer, United Kingdom (3240): sunshine duration: 11.10.2017 15:00:00 - 17.10.2017 15:00:00 (BST)Boulmer, United Kingdom (3240): precipitation: 11.10.2017 15:00:00 - 17.10.2017 15:00:00 (BST)
Date & Time tt [°C] td [°C] ff [km/h] ff [kn] fx [km/h] fx [kn] dd ppp [hPa] vv [km] sd [min] rr [mm]
17.10.2017 15:00:00 13,5 9,1 35 19 59 32 SW 1009,5 10 24 0,0
17.10.2017 14:00:00 13,5 9,2 42 23 61 33 SW 1008,8 10 18 0,0
17.10.2017 13:00:00 12,9 9,2 34 18 65 35 SW 1009,0 10 18 0,0
17.10.2017 12:00:00 12,4 9,2 44 24 78 42 SW 1007,5 10 0 0,0
17.10.2017 11:00:00 12,6 8,7 52 28 78 42 SW 1006,6 10 12 0,0
17.10.2017 10:00:00 12,1 8,7 46 25 70 38 SW 1006,1 10 0 0,0
17.10.2017 09:00:00 11,8 8,6 44 24 72 39 SW 1005,1 10 0 0,0
17.10.2017 08:00:00 11,8 8,5 41 22 78 42 SW 1004,5 10 0 0,0
17.10.2017 07:00:00 11,8 8,0 54 29 96 52 SW 1002,4 10 0 0,0
17.10.2017 06:00:00 12,2 7,9 52 28 93 50 SW 1001,4 10 0 0,0
17.10.2017 05:00:00 12,2 7,6 59 32 91 49 SW 1000,0 10 0 0,0
17.10.2017 04:00:00 12,9 7,8 55 30 89 48 SW 999,4 10 0 0,0
17.10.2017 03:00:00 13,1 9,2 48 26 94 51 SSW 999,2 10 0 0,0
17.10.2017 02:00:00 13,6 9,4 52 28 81 44 SSW 999,0 10 0 0,0
17.10.2017 01:00:00 13,3 9,1 50 27 80 43 SSW 999,1 10 - 0,0
17.10.2017 00:00:00 13,8 8,8 50 27 76 41 S 999,8 10 0 0,0
16.10.2017 23:00:00 13,7 8,6 44 24 67 36 S 1000,5 10 0 0,0
16.10.2017 22:00:00 14,0 8,0 41 22 70 38 S 1000,5 10 0 0,0
16.10.2017 21:00:00 14,2 7,9 39 21 70 38 S 1000,8 10 0 0,0
16.10.2017 20:00:00 15,0 7,9 39 21 61 33 S 1001,4 10 0 0,0
16.10.2017 19:00:00 14,7 8,5 34 18 48 26 S 1001,9 10 0 -
16.10.2017 18:00:00 12,3 12,3 13 7 - - SE 1002,1 2,4 0 0,0
16.10.2017 17:00:00 12,9 12,9 13 7 - - SSE 1003,2 1,7 0 0,0
16.10.2017 16:00:00 12,9 12,9 24 13 - - SE 1004,6 0,2 0 0,0
16.10.2017 15:00:00 12,8 12,8 24 13 - - SE 1006,2 0,2 0 0,0
16.10.2017 14:00:00 12,7 12,7 21 11 - - SE 1007,6 0,2 0 0,0
16.10.2017 13:00:00 12,5 12,3 21 11 - - ESE 1009,3 2,3 0 0,2
16.10.2017 12:00:00 12,3 12,1 15 8 - - ENE 1010,5 3,1 0 0,2
16.10.2017 11:00:00 11,9 11,7 9 5 - - NE 1011,6 5 0 0,0
16.10.2017 10:00:00 11,7 11,6 8 4 - - N 1012,6 6 0 0,2
16.10.2017 09:00:00 11,7 11,7 9 5 - - S 1013,3 5 0 0,0
16.10.2017 08:00:00 10,6 10,5 8 4 - - SSW 1012,5 0,6 0 0,0
16.10.2017 07:00:00 10,9 10,8 5 3 - - ENE 1012,1 4,1 0 0,0
16.10.2017 06:00:00 11,0 10,8 4 2 - - NNW 1013,1 10 0 0,0
16.10.2017 05:00:00 11,4 11,2 8 4 - - W 1014,1 9 0 0,0
16.10.2017 04:00:00 12,1 11,8 11 6 - - NNE 1013,5 10 0 0,2
16.10.2017 03:00:00 12,2 11,9 5 3 - - N 1013,6 10 0 0,0
16.10.2017 02:00:00 12,6 12,2 5 3 - - NNE 1014,1 10 0 0,0
16.10.2017 01:00:00 13,0 12,2 4 2 - - NNW 1014,2 10 - 0,0
16.10.2017 00:00:00 13,0 12,2 4 2 - - N 1013,6 10 0 0,0
15.10.2017 23:00:00 13,3 12,4 4 2 - - ESE 1013,6 10 0 0,0
15.10.2017 22:00:00 14,2 12,9 16 9 - - SW 1013,3 10 0 0,0
15.10.2017 21:00:00 14,6 13,2 16 9 - - SW 1013,1 10 0 0,0
15.10.2017 20:00:00 14,7 13,4 15 8 - - SSW 1012,8 10 0 0,0
15.10.2017 19:00:00 14,9 13,4 22 12 - - SSW 1011,9 10 0 0,0
15.10.2017 18:00:00 15,6 13,2 21 11 - - SSW 1011,4 10 0 0,0
15.10.2017 17:00:00 16,2 12,8 18 10 - - SSW 1010,9 10 0 0,0
15.10.2017 16:00:00 16,9 12,9 26 14 - - SW 1010,4 10 36 0,0
15.10.2017 15:00:00 16,8 12,4 24 13 - - SW 1010,1 10 0 0,0
15.10.2017 14:00:00 17,1 12,8 24 13 - - SSW 1009,8 10 6 0,0
15.10.2017 13:00:00 16,9 12,6 26 14 46 25 SSW 1009,9 10 0 0,0
15.10.2017 12:00:00 16,9 12,7 26 14 - - SSW 1010,2 10 0 0,0
15.10.2017 11:00:00 16,4 12,2 21 11 - - SSW 1010,5 10 18 0,0
15.10.2017 10:00:00 14,0 11,9 21 11 - - SSE 1010,9 10 18 0,0
15.10.2017 09:00:00 14,6 11,8 16 9 - - SSE 1011,2 10 6 0,0
15.10.2017 08:00:00 13,1 11,5 11 6 - - ESE 1011,3 10 0 0,0
15.10.2017 07:00:00 12,7 11,2 15 8 - - E 1011,5 10 0 0,0
15.10.2017 06:00:00 12,2 11,0 16 9 - - SE 1012,0 10 0 0,0
15.10.2017 05:00:00 13,1 10,7 15 8 - - S 1012,6 10 0 0,0
15.10.2017 04:00:00 12,4 10,9 18 10 - - S 1013,0 10 0 0,0
15.10.2017 03:00:00 11,6 10,3 13 7 - - S 1014,1 10 0 0,0
15.10.2017 02:00:00 12,2 10,8 15 8 - - S 1014,7 10 0 0,0
15.10.2017 01:00:00 13,4 11,1 21 11 - - S 1015,4 10 - 0,0
15.10.2017 00:00:00 13,5 11,1 13 7 - - S 1016,0 10 0 0,0
14.10.2017 23:00:00 14,1 11,1 24 13 46 25 SSW 1015,7 10 0 0,0
14.10.2017 22:00:00 15,2 11,4 29 16 46 25 SSW 1016,3 10 0 0,0
14.10.2017 21:00:00 15,1 12,7 24 13 48 26 S 1017,4 10 0 0,0
14.10.2017 20:00:00 15,9 13,8 29 16 - - SW 1017,3 10 0 0,0
14.10.2017 19:00:00 16,6 14,5 21 11 - - SSW 1017,8 10 0 0,0
14.10.2017 18:00:00 17,0 14,8 16 9 - - SSW 1017,4 10 0 0,0
14.10.2017 17:00:00 16,3 14,6 15 8 - - SSW 1017,2 10 0 0,0
14.10.2017 16:00:00 15,6 14,1 9 5 - - S 1017,1 10 0 0,0
14.10.2017 15:00:00 15,9 13,4 18 10 - - SSW 1016,7 10 0 0,0
14.10.2017 14:00:00 15,4 13,0 21 11 - - SW 1016,8 10 18 0,0
14.10.2017 13:00:00 16,2 12,9 22 12 - - WSW 1016,9 10 6 0,0
14.10.2017 12:00:00 15,2 12,5 15 8 - - SW 1016,7 10 12 0,0
14.10.2017 11:00:00 14,7 12,4 15 8 - - SW 1016,7 10 6 0,0
14.10.2017 10:00:00 13,7 12,3 13 7 - - WSW 1016,8 10 0 0,0
14.10.2017 09:00:00 13,3 11,7 0 0 - - N 1016,6 - 0 0,0
14.10.2017 08:00:00 13,3 11,8 0 0 - - N 1016,2 - 0 0,2
14.10.2017 07:00:00 13,0 12,3 0 0 - - N 1016,0 - 0 0,0
14.10.2017 06:00:00 13,4 11,8 0 0 - - N 1015,4 - 0 0,0
14.10.2017 05:00:00 13,3 11,9 0 0 - - N 1015,3 - 0 0,0
14.10.2017 04:00:00 13,5 11,8 0 0 - - N 1014,8 - 0 0,0
14.10.2017 03:00:00 13,5 11,9 0 0 - - N 1014,7 - 0 0,0
14.10.2017 02:00:00 13,6 12,2 0 0 - - N 1014,6 - 0 0,0
14.10.2017 01:00:00 13,8 12,6 0 0 - - N 1013,8 - - 0,0
14.10.2017 00:00:00 13,7 12,8 0 0 - - N 1013,4 - 0 0,0
13.10.2017 23:00:00 14,2 13,4 0 0 - - N 1013,4 - 0 0,0
13.10.2017 22:00:00 14,6 13,9 0 0 - - N 1012,9 - 0 0,2
13.10.2017 21:00:00 15,7 14,7 9 5 - - SW 1012,5 8 0 0,0
13.10.2017 20:00:00 16,2 15,3 21 11 - - SW 1012,4 5 0 0,4
13.10.2017 19:00:00 16,4 15,7 16 9 - - SSW 1011,5 10 0 0,0
13.10.2017 18:00:00 17,0 15,8 21 11 - - SSW 1011,0 6 0 0,0
13.10.2017 17:00:00 17,7 16,0 21 11 - - SSW 1010,4 10 0 0,0
13.10.2017 16:00:00 18,4 15,9 28 15 54 29 SSW 1009,8 10 0 0,0
13.10.2017 15:00:00 18,9 15,6 35 19 63 34 SSW 1009,3 10 24 0,0
13.10.2017 14:00:00 19,2 15,7 44 24 68 37 SSW 1008,9 10 6 0,0
13.10.2017 13:00:00 18,9 15,3 42 23 72 39 SW 1008,6 10 0 0,0
13.10.2017 12:00:00 18,9 15,3 46 25 65 35 SW 1008,1 10 0 0,0
13.10.2017 11:00:00 18,6 14,9 42 23 67 36 SW 1008,2 10 0 0,0
13.10.2017 10:00:00 17,7 14,4 35 19 59 32 SSW 1008,1 10 6 0,0
13.10.2017 09:00:00 17,6 14,2 21 11 - - SSW 1008,1 10 0 0,0
13.10.2017 08:00:00 17,4 13,9 24 13 - - SSW 1008,0 10 0 0,0
13.10.2017 07:00:00 16,8 13,7 24 13 - - SSW 1008,1 10 0 0,0
13.10.2017 06:00:00 15,7 13,1 24 13 48 26 S 1008,1 10 0 0,0
13.10.2017 05:00:00 16,0 13,1 29 16 46 25 SSW 1008,4 10 0 0,0
13.10.2017 04:00:00 15,5 12,5 29 16 57 31 SSW 1008,6 10 0 0,0
13.10.2017 03:00:00 15,5 12,1 34 18 50 27 SSW 1008,8 10 0 0,0
13.10.2017 02:00:00 15,8 12,3 26 14 - - SSW 1009,7 10 0 0,0
13.10.2017 01:00:00 14,2 11,5 22 12 - - SSW 1010,6 10 - 0,0
13.10.2017 00:00:00 12,4 9,9 16 9 - - SE 1011,0 10 0 0,0
12.10.2017 23:00:00 12,3 9,2 11 6 - - SSE 1011,6 10 0 0,0
12.10.2017 22:00:00 12,7 8,8 28 15 - - S 1012,0 10 0 0,0
12.10.2017 21:00:00 12,8 8,3 26 14 - - SSW 1012,4 10 0 0,0
12.10.2017 20:00:00 11,8 7,5 21 11 - - S 1013,0 10 0 0,0
12.10.2017 19:00:00 12,3 7,3 13 7 - - SSW 1013,4 10 0 0,0
12.10.2017 18:00:00 12,4 7,4 13 7 - - S 1014,0 10 0 0,0
12.10.2017 17:00:00 12,3 8,0 18 10 - - SSW 1013,7 10 0 0,0
12.10.2017 16:00:00 12,7 7,7 22 12 - - SW 1014,2 10 0 0,0
12.10.2017 15:00:00 12,6 8,1 24 13 - - SW 1013,7 10 0 0,0
12.10.2017 14:00:00 12,8 7,5 29 16 54 29 WSW 1013,8 10 0 0,0
12.10.2017 13:00:00 12,9 7,8 28 15 - - WSW 1013,7 10 0 0,0
12.10.2017 12:00:00 12,4 7,8 24 13 - - SW 1013,4 10 0 0,0
12.10.2017 11:00:00 11,2 7,7 24 13 - - SW 1012,9 10 0 0,0
12.10.2017 10:00:00 10,4 7,2 28 15 - - SW 1011,9 10 0 0,0
12.10.2017 09:00:00 9,7 6,7 28 15 - - SW 1011,2 10 0 0,0
12.10.2017 08:00:00 8,8 6,4 21 11 - - SW 1010,5 10 0 0,0
12.10.2017 07:00:00 8,3 6,0 22 12 - - SSW 1009,7 10 0 0,0
12.10.2017 06:00:00 8,2 5,6 26 14 - - SSW 1009,2 10 0 0,0
12.10.2017 05:00:00 9,1 5,6 28 15 50 27 WSW 1007,6 10 0 0,0
12.10.2017 04:00:00 9,3 5,8 37 20 55 30 WSW 1006,8 10 0 0,0
12.10.2017 03:00:00 9,4 5,5 34 18 52 28 W 1006,3 10 0 0,0
12.10.2017 02:00:00 9,5 5,1 31 17 46 25 WSW 1005,4 10 0 0,0
12.10.2017 01:00:00 9,9 5,1 37 20 52 28 W 1004,4 10 - 0,0
12.10.2017 00:00:00 9,4 4,3 13 7 46 25 WSW 1003,7 10 0 0,0
11.10.2017 23:00:00 11,5 7,1 34 18 48 26 W 1002,2 10 0 0,0
11.10.2017 22:00:00 11,0 8,1 18 10 - - WSW 1000,7 10 0 0,0
11.10.2017 21:00:00 11,8 8,7 22 12 - - WSW 1000,2 10 0 0,0
11.10.2017 20:00:00 12,0 9,5 24 13 - - SW 999,5 10 0 0,0
11.10.2017 19:00:00 12,7 9,8 16 9 - - WSW 998,6 10 0 0,0
11.10.2017 18:00:00 13,7 10,1 8 4 - - WSW 997,9 10 18 0,0
11.10.2017 17:00:00 14,6 11,6 22 12 - - WSW 997,0 10 42 0,0
11.10.2017 16:00:00 15,2 12,7 28 15 - - SSW 996,5 10 18 0,4
11.10.2017 15:00:00 14,6 12,5 26 14 - - SW 996,8 10 0 0,2

tt = temperature
td = dewpoint
ff = wind speed
fx = gusts
dd = wind direction
ppp = reduced air pressure
vv = visibility
sd = sunshine duration
rr = precipitation

Next stations